CW8524 Weather Reports


time (UTC)temp
F
wind
direction
speed
knots
gust
knots
rain 1hr
in
rain 24hr
in
rain mn
in
humidity
%
barometer
mb
20220813150056 77 242 7.8 13.0 0.00 0.00 0.00 38 1026.9
20220813144539 76 189 7.0 12.2 0.00 0.00 0.00 41 1027.0
20220813143034 74 168 6.1 12.2 0.00 0.00 0.00 44 1027.1
20220813141553 72 173 4.3 10.4 0.00 0.00 0.00 48 1027.0
20220813140025 70 180 7.8 10.4 0.00 0.00 0.00 51 1026.8
20220813134524 68 177 4.3 7.0 0.00 0.00 0.00 56 1026.7
20220813133030 66 190 4.3 6.1 0.00 0.00 0.00 60 1026.6
20220813131523 64 212 2.6 5.2 0.00 0.00 0.00 61 1026.7
20220813130007 63 231 0.0 6.1 0.00 0.00 0.00 63 1026.6
20220813124504 63 246 2.6 6.1 0.00 0.00 0.00 62 1026.4
20220813123111 63 179 2.6 6.1 0.00 0.00 0.00 61 1026.2
20220813121605 63 201 2.6 6.1 0.00 0.00 0.00 61 1026.1
20220813120108 62 214 2.6 4.3 0.00 0.00 0.00 64 1026.1
20220813114558 62 211 2.6 5.2 0.00 0.00 0.00 64 1025.8
20220813113053 63 172 3.5 7.8 0.00 0.00 0.00 60 1025.6
20220813111619 64 221 3.5 6.1 0.00 0.00 0.00 59 1025.7
20220813110050 64 248 2.6 7.0 0.00 0.00 0.00 59 1025.7
20220813104608 64 226 2.6 8.7 0.00 0.00 0.00 59 1025.8
20220813103054 64 208 4.3 7.0 0.00 0.00 0.00 58 1025.9
20220813101551 65 241 3.5 7.0 0.00 0.00 0.00 58 1025.7
20220813100056 64 197 1.7 6.1 0.00 0.00 0.00 60 1025.8
20220813094544 64 219 3.5 6.1 0.00 0.00 0.00 61 1026.0
20220813093042 64 221 3.5 5.2 0.00 0.00 0.00 60 1026.0
20220813091609 64 221 2.6 6.1 0.00 0.00 0.00 60 1025.9
20220813090044 64 213 1.7 6.1 0.00 0.00 0.00 59 1025.9
20220813084539 64 221 4.3 6.1 0.00 0.00 0.00 59 1025.9
20220813083046 65 184 1.7 4.3 0.00 0.00 0.00 59 1025.9
20220813081544 65 185 2.6 5.2 0.00 0.00 0.00 58 1026.0
20220813080053 65 174 2.6 5.2 0.00 0.00 0.00 58 1025.8
20220813074600 66 184 3.5 6.1 0.00 0.00 0.00 57 1026.0
20220813073029 66 178 2.6 5.2 0.00 0.00 0.00 56 1026.0
20220813071536 66 175 3.5 6.1 0.00 0.00 0.00 55 1025.9
20220813070053 67 177 2.6 5.2 0.00 0.00 0.00 54 1026.1
20220813064529 67 200 2.6 6.1 0.00 0.00 0.00 53 1026.3
20220813063023 68 225 1.7 4.3 0.00 0.00 0.00 54 1026.3
20220813061521 68 229 1.7 3.5 0.00 0.00 0.00 54 1026.3
20220813060036 68 204 2.6 4.3 0.00 0.00 0.00 53 1026.3
20220813054530 68 207 2.6 4.3 0.00 0.00 0.00 54 1026.2
20220813053015 69 220 1.7 4.3 0.00 0.00 0.00 54 1026.1
20220813051515 69 165 1.7 6.1 0.00 0.00 0.00 54 1026.0
20220813050011 70 197 2.6 4.3 0.00 0.00 0.00 52 1025.9
20220813044519 71 163 2.6 8.7 0.00 0.00 0.00 50 1025.7
20220813043013 72 145 5.2 8.7 0.00 0.00 0.00 49 1025.6
20220813041524 73 131 3.5 6.1 0.00 0.00 0.00 47 1025.5
20220813040019 73 138 4.3 8.7 0.00 0.00 0.00 47 1025.4
20220813034529 74 144 1.7 7.8 0.00 0.00 0.00 46 1025.3
20220813033027 74 134 2.6 7.0 0.00 0.00 0.00 45 1025.0
20220813031519 75 141 4.3 7.0 0.00 0.00 0.00 45 1024.9
20220813030021 76 130 4.3 7.8 0.00 0.00 0.00 45 1024.6
20220813024519 77 129 4.3 7.8 0.00 0.00 0.00 44 1024.2
20220813023020 78 131 4.3 7.8 0.00 0.00 0.00 42 1024.1
20220813021508 79 135 4.3 9.6 0.00 0.00 0.00 41 1023.7
20220813020010 80 137 5.2 8.7 0.00 0.00 0.00 40 1023.6
20220813014504 82 132 3.5 9.6 0.00 0.00 0.00 37 1023.4
20220813013010 83 133 4.3 9.6 0.00 0.00 0.00 34 1023.2
20220813011502 84 120 7.8 10.4 0.00 0.00 0.00 33 1023.0
20220813010005 85 132 8.7 13.0 0.00 0.00 0.00 32 1022.9
20220813004607 86 153 7.0 11.3 0.00 0.00 0.00 34 1022.8
20220813003058 87 133 6.1 13.9 0.00 0.00 0.00 32 1022.9
20220813001557 87 120 7.8 13.0 0.00 0.00 0.00 31 1022.9
20220813000058 88 144 6.1 13.0 0.00 0.00 0.00 32 1023.0
20220812234555 88 122 7.0 12.2 0.00 0.00 0.00 32 1023.0
20220812233122 89 130 4.3 12.2 0.00 0.00 0.00 31 1023.1
20220812231616 89 165 6.1 11.3 0.00 0.00 0.00 29 1023.1
20220812230116 89 141 5.2 10.4 0.00 0.00 0.00 30 1023.2
20220812224552 89 130 7.0 12.2 0.00 0.00 0.00 30 1023.4
20220812223049 89 182 6.1 9.6 0.00 0.00 0.00 29 1023.5
20220812221547 89 138 5.2 12.2 0.00 0.00 0.00 29 1023.7
20220812220116 89 149 1.7 11.3 0.00 0.00 0.00 30 1023.8
20220812214552 89 145 9.6 14.8 0.00 0.00 0.00 30 1024.0
20220812213048 88 184 8.7 13.9 0.00 0.00 0.00 30 1024.1
20220812211541 89 153 7.0 13.0 0.00 0.00 0.00 28 1024.4
20220812210040 89 177 4.3 12.2 0.00 0.00 0.00 30 1024.6
20220812204543 88 192 5.2 8.7 0.00 0.00 0.00 31 1024.6
20220812203037 88 131 8.7 13.9 0.00 0.00 0.00 29 1024.9
20220812201535 87 145 4.3 14.8 0.00 0.00 0.00 32 1025.0
20220812200043 88 181 7.0 13.9 0.00 0.00 0.00 31 1025.1
20220812194533 88 137 5.2 15.6 0.00 0.00 0.00 31 1025.3
20220812193033 87 186 7.0 14.8 0.00 0.00 0.00 31 1025.5
20220812191529 87 174 10.4 18.2 0.00 0.00 0.00 29 1025.5
20220812190027 86 115 7.0 12.2 0.00 0.00 0.00 31 1025.7
20220812184548 86 193 7.8 13.9 0.00 0.00 0.00 31 1025.7
20220812183032 86 144 8.7 13.9 0.00 0.00 0.00 32 1025.8
20220812181521 86 178 3.5 10.4 0.00 0.00 0.00 34 1025.8
20220812180019 85 169 4.3 10.4 0.00 0.00 0.00 36 1026.0
20220812174518 85 145 7.0 13.0 0.00 0.00 0.00 35 1026.1
20220812173018 84 121 8.7 14.8 0.00 0.00 0.00 41 1026.1
20220812171514 83 137 5.2 12.2 0.00 0.00 0.00 43 1026.3
20220812170022 83 118 7.0 11.3 0.00 0.00 0.00 44 1026.6
20220812164623 82 169 7.8 15.6 0.00 0.00 0.00 46 1026.7
20220812163121 80 169 8.7 13.9 0.00 0.00 0.00 48 1026.8
20220812161553 80 190 7.8 14.8 0.00 0.00 0.00 49 1027.1
20220812160145 79 153 7.8 13.0 0.00 0.00 0.00 51 1027.1
20220812154543 78 205 8.7 12.2 0.00 0.00 0.00 51 1027.4
20220812153038 78 175 8.7 15.6 0.00 0.00 0.00 52 1027.4
20220812151543 77 169 8.7 13.9 0.00 0.00 0.00 52 1027.4